JAY-C

导读

JAY-C卫星是美国于2025年1月14日成功发射的人造卫星,作为美国近年航天发射任务的成果,该卫星入轨后已稳定运行超一年时间。目前公开信息中暂未披露其具体任务定位,结合美国航天发射布局推测,它可能服务于遥感观测、通信技术验证或空间科学探测领域,将为美国航天数据积累及相关技术验证提供支撑,后续值得关注其任务进展与成果公布。

基本信息
目录编号:
62668
目录名称:
JAY-C
国际标识:
2025-009BM
轨道中心:
EARTH
卫星名称:
JAY-C
卫星全名:
JAY-C
卫星状态:
在轨 (已飞行599 天)
发射日期:
2025-01-14 UTC
国别 :
加拿大 (CA)
星等 :
--
轨道信息
数据来源 国际轨道数据
星历时间: 2026-09-05T05:39:17+0800
9小时前
查看轨道信息
半长轴: 6875.519km
偏心率: 0.000587
轨道倾角: 97.391°
近地点辐角 68.834°
升交点赤经 325.555°
平近点角 291.353°
近地点: 493.346km
远地点: 501.418km
周期: 94.562分钟
每日圈数: 15.228061
详细信息
使用方式:
暂无
2D轨道图
3D轨道图
轨道高度分析图
轨道倾角分析图
轨道综合分析图
查看轨道综合分析图